RH
99 99 100 99 100 95 95 96 92 89 95 94 73 55 36 16 11 10 8 7 5 4 3 3 3 4 6
99 100 98 99 100 97 94 94 99 98 91 67 23 12 9 8 7 6 4 3 3 3 4 5 8 12 14
86 94 97 94 96 100 100 91 37 13 10 9 9 8 6 5 4 3 3 4 6 10 15 18 17 17 18
88 88 98 99 87 53 17 11 9 8 8 7 6 4 4 4 5 9 16 22 24 21 20 22 23 22 20
95 97 71 20 13 10 10 9 7 6 5 4 4 4 10 21 33 33 28 25 25 28 30 30 30 32 32
40 13 11 10 9 8 7 4 4 4 3 9 14 27 38 36 28 28 31 34 36 38 38 38 38 39 41
11 10 9 8 5 4 3 3 6 15 21 35 36 30 30 32 33 34 36 39 45 47 47 46 45 45 45
8 6 4 3 2 3 5 17 35 39 32 27 26 26 31 34 36 40 45 50 54 56 55 53 51 51 51
3 2 2 2 7 23 33 37 36 33 32 28 32 27 31 38 46 54 62 65 64 62 61 60 58 56 53
2 2 8 22 29 32 36 35 34 41 42 36 37 35 26 33 38 46 58 68 66 68 65 62 58 54 52
6 18 24 28 32 36 39 40 43 46 47 42 35 38 40 33 31 42 58 66 70 70 68 66 65 66 60
22 27 31 33 35 38 41 44 46 50 54 55 46 50 49 46 41 41 47 63 74 74 71 70 69 68 76
29 30 31 35 38 40 44 46 49 54 60 64 58 52 44 43 42 45 45 57 73 73 72 69 65 64 69
31 33 36 39 40 40 41 44 46 49 57 61 56 48 42 36 39 47 57 63 80 76 66 61 64 70 68
35 37 38 39 40 42 44 44 42 41 43 49 56 55 56 48 36 50 59 60 73 70 66 62 69 73 73
38 39 42 45 48 52 54 56 54 46 41 42 44 48 54 54 42 36 49 57 77 83 82 68 63 78 86
42 44 47 51 54 57 59 60 60 60 52 42 43 50 53 54 48 44 50 63 76 83 85 80 68 72 75
Wind_Speed
33 37 34 37 35 37 36 35 33 32 35 37 39 41 42 43 44 45 47 49 50 52 52 52 50 47 43
41 36 36 35 33 31 31 31 33 34 36 38 41 43 43 45 46 48 50 50 50 50 49 46 43 40 39
38 34 29 29 29 30 31 33 33 35 38 40 43 45 46 47 46 47 48 47 45 43 40 39 39 39 39
33 30 28 30 31 32 32 35 34 38 41 43 45 46 45 43 41 38 37 36 36 37 39 39 38 37 37
31 29 29 33 34 35 38 39 37 42 44 42 43 39 31 28 28 29 32 36 38 39 39 38 37 36 35
29 30 33 36 38 39 42 42 39 38 38 24 28 21 23 25 27 30 33 35 37 38 38 38 37 36 35
32 35 37 40 41 40 39 34 26 22 23 16 23 23 23 22 25 29 31 33 35 36 37 37 36 36 35
38 39 40 39 35 28 20 15 16 20 28 25 24 23 21 20 24 27 30 32 33 35 36 36 36 37 35
39 36 29 20 14 13 16 19 18 18 25 27 24 27 19 16 19 23 27 29 31 32 33 34 34 33 32
23 13 9 11 15 18 20 20 23 20 28 25 24 31 24 14 15 19 23 27 30 31 30 30 30 29 26
7 7 11 14 17 19 20 21 22 23 29 31 27 27 30 28 18 20 23 26 29 29 28 27 28 28 24
7 10 13 16 17 19 20 22 24 26 27 31 32 33 34 31 29 23 23 25 28 28 26 25 25 23 22
9 12 14 16 18 19 21 22 23 25 27 29 32 33 34 35 33 29 31 24 26 28 27 25 22 22 22
11 13 14 16 18 19 20 22 22 22 25 28 29 32 33 33 33 31 29 33 29 28 26 23 23 23 26
11 13 15 16 18 20 21 22 24 24 24 27 29 31 32 33 32 32 32 29 30 29 28 27 23 22 24
14 16 17 19 20 22 24 25 25 26 28 29 31 32 31 28 31 33 31 31 30 29 27 26 21 20 23
19 20 22 23 25 26 27 28 28 28 29 31 32 35 35 34 28 28 32 32 34 30 28 27 26 20 22
Wind_Direction
291 302 295 294 289 293 285 284 285 287 285 283 281 280 280 284 285 286 286 287 288 288 288 287 288 287 286
294 294 297 296 292 291 292 292 288 283 281 283 285 286 288 288 289 288 288 289 288 287 287 286 286 284 282
301 300 297 294 293 290 288 289 291 290 289 289 289 289 289 290 290 289 288 287 286 286 286 284 283 282 283
299 300 299 293 293 293 292 290 291 290 291 292 292 291 291 291 291 289 288 289 290 288 285 286 288 288 286
299 293 293 294 295 296 296 296 297 296 294 293 290 290 294 292 295 295 294 291 288 288 289 290 289 289 288
294 296 296 297 299 300 301 300 300 295 294 299 295 302 301 301 297 292 287 285 287 289 292 292 294 294 293
297 298 299 299 301 303 303 306 308 305 306 312 305 308 302 300 292 287 287 287 288 291 292 293 294 294 293
299 302 303 303 305 307 310 317 319 317 309 316 313 309 312 306 294 292 290 289 291 293 294 294 294 293 292
302 301 302 304 311 317 320 322 324 320 305 315 315 308 320 312 297 291 288 289 289 289 289 290 289 289 291
303 305 314 323 323 322 322 325 323 322 310 319 321 315 319 318 308 298 297 296 294 294 294 291 291 292 292
310 317 319 320 322 322 322 322 323 326 320 321 327 323 322 328 329 315 306 299 298 300 296 296 297 293 292
305 316 321 322 323 324 325 326 328 328 324 321 324 325 326 327 327 326 314 312 310 302 297 297 297 289 288
311 318 320 322 323 325 324 327 329 326 324 322 323 325 326 326 326 328 320 323 316 306 300 300 296 285 279
311 314 317 319 320 323 326 326 328 325 322 319 320 323 328 329 325 326 324 323 320 312 305 300 296 293 284
303 308 312 315 317 320 323 325 329 327 324 321 320 320 323 328 327 322 320 322 317 313 304 297 300 295 285
304 306 307 309 312 313 316 319 323 326 327 326 324 321 320 327 328 325 320 318 318 316 310 303 302 302 289
306 309 310 311 312 312 312 313 316 321 325 326 326 325 323 325 331 328 322 322 321 317 310 304 306 306 293